Location: Radomski Observatory
(40.2854°N, 79.5145°W)
Time: 07:37:29
(UTC-04:00)

Daily predictions for brighter satellites

Satellite Brightness Start Highest point End
(mag) Time Altitude Azimuth Time Altitude Azimuth Time Altitude Azimuth
Cosmos 2221 3.5 20:29:22 10° SSW 20:33:31 52° W 20:37:42 10° N
NOSS 2-1 (C) 3.3 20:32:44 10° SW 20:36:20 78° WNW 20:40:16 10° NNE
NOSS 2-1 (D) 3.4 20:33:44 10° SW 20:37:19 74° NW 20:41:16 10° NNE
BREEZE-M DEB (TANK) 3.8 20:32:40 10° NW 20:37:58 37° NNE 20:40:25 10° E
Cosmos 1340 2.6 20:34:57 10° S 20:38:42 76° E 20:42:31 10° NNE
Cosmos 2228 Rocket 4.2 20:38:46 10° SE 20:42:17 24° E 20:45:48 10° NE
Thor Agena Rocket 3.6 20:37:11 10° NNE 20:42:22 59° ESE 20:47:34 10° S
SL-24 R/B - RUBIN 2 3.5 20:38:28 10° NNW 20:42:51 89° ENE 20:47:14 10° SSE
In-Cosmos 22 Rocket 4.2 20:37:22 10° N 20:42:51 83° W 20:48:11 10° S
Lacrosse 5 4.5 20:41:43 10° NNW 20:43:29 12° N 20:45:14 10° NNE
HJ-1C 4.2 20:41:27 10° S 20:44:43 54° W 20:48:02 10° NNW
ATLAS 2AS CENTAUR R/B 3.3 20:37:31 10° NNW 20:45:18 55° NE 20:52:15 11° SE
OAO 2 Rocket 4.2 20:45:34 10° W 20:50:25 39° SSW 20:54:42 13° SE
Cosmos 1805 Rocket 4.0 20:47:27 10° NNW 20:51:46 64° W 20:56:02 10° S
Cosmos 1825 3.8 20:50:23 10° NNE 20:53:06 19° ENE 20:54:53 14° ESE
Spot 2 Rocket 4.0 20:49:29 10° SE 20:54:16 42° ENE 20:59:04 10° N
Cosmos 1328 Rocket 3.7 20:51:59 10° SSE 20:56:14 51° E 21:00:33 10° NNE
Cosmos 2154 Rocket 4.0 20:51:29 10° S 20:57:45 89° ESE 21:04:02 10° N
ATLAS CENTAUR R/B 1.0 20:54:44 10° SSW 20:58:20 65° ESE 21:02:06 10° NE
SL-8 R/B 3.8 20:53:49 10° SW 20:58:29 55° SE 21:03:11 10° ENE
SL-16 R/B 3.6 21:01:33 14° ESE 21:03:34 17° E 21:07:07 10° ENE
Timation 1 Rocket 4.5 20:58:00 10° NNW 21:03:59 81° WSW 21:09:57 10° SSE
Resurs 01 Rocket 1.6 21:02:36 10° SSE 21:07:01 72° ENE 21:11:28 10° N
ARGOS 4.3 21:06:46 16° ESE 21:09:44 26° ENE 21:14:05 10° N
Cosmos 1470 Rocket 3.8 21:05:37 10° N 21:09:54 48° E 21:13:19 15° SSE
SJ-6B 4.3 21:07:09 10° SSW 21:10:55 37° W 21:14:38 10° NNW
Meteor 2-3 Rocket 3.7 21:08:11 10° N 21:13:50 80° E 21:19:28 10° SSE
Cosmos 1939 Rocket 3.0 21:13:44 10° S 21:17:34 71° WSW 21:21:29 10° NNW
Cosmos 2341 Rocket 4.0 21:14:44 10° S 21:21:07 89° WNW 21:27:29 10° N
Cosmos 1869 3.9 21:19:48 23° SE 21:21:40 35° E 21:25:22 10° NNE
NOSS 3-3 (A) 4.4 21:15:49 10° SW 21:21:48 68° NW 21:28:25 10° NNE
NOSS 3-3 (C) 4.3 21:15:55 10° SW 21:21:55 68° NW 21:28:31 10° NNE
NOSS 0 Rocket 3.9 21:16:37 10° SSW 21:22:45 81° ESE 21:29:00 10° NNE
Meteor 2-10 Rocket 4.3 21:20:50 17° SSE 21:24:39 36° E 21:29:55 10° NNE
Cosmos 2218 Rocket 4.2 21:19:47 10° SSE 21:25:55 54° E 21:32:08 10° NNE
Aureole 2 4.5 21:25:29 10° SSW 21:28:31 63° WNW 21:31:26 10° NNE
Cosmos 1980 3.6 21:23:48 10° SSW 21:29:28 81° ESE 21:35:11 10° NNE
USA 267 4.1 21:24:38 10° ENE 21:29:50 25° SE 21:35:00 10° S
ERS-1 Rocket 4.1 21:30:08 23° E 21:31:43 27° ENE 21:35:53 10° N
Cosmos 407 Rocket 4.4 21:28:03 10° N 21:32:35 30° ENE 21:34:17 25° E
Cosmos 1408 2.4 21:33:02 10° N 21:36:43 75° E 21:38:11 34° SSE
Cosmos 2366 rocket 4.0 21:31:19 10° S 21:37:24 60° E 21:43:34 10° NNE
Cosmos 220 Rocket 4.4 21:33:32 10° NNW 21:37:48 59° WSW 21:40:43 19° S
H-2A R/B 2.8 21:36:33 27° ESE 21:38:08 33° ENE 21:42:35 10° N
Cosmos 1933 Rocket 3.4 21:34:08 10° N 21:38:32 84° E 21:41:04 25° S
Cosmos 2333 Rocket 3.1 21:34:54 10° SW 21:40:24 52° WNW 21:45:56 10° NNE
TRAILBLAZER 4.5 21:36:48 10° SSW 21:41:21 78° ESE 21:46:02 10° NE
Cosmos 1151 Rocket 3.1 21:37:11 10° SSW 21:41:25 75° W 21:45:43 10° N
Cosmos 1371 Rocket 4.0 21:36:17 10° S 21:41:31 64° ESE 21:46:49 10° NNE
Cosmos 1455 3.8 21:38:23 10° SW 21:41:56 36° WNW 21:45:31 10° N
USA 186 4.1 21:41:29 10° SW 21:42:34 13° W 21:43:42 10° WNW
Cosmos 1844 Rocket 4.4 21:39:22 10° NW 21:44:12 29° WSW 21:49:00 10° SSW
SL-8 Rocket 4.0 21:40:11 10° S 21:46:29 87° W 21:52:49 10° N
MetOp-A 4.2 21:51:20 35° SE 21:53:30 63° ENE 21:58:47 10° N
Cosmos 1339 Rocket 4.4 21:48:41 10° N 21:54:47 68° E 21:57:44 32° SSE
Cosmos 2219 Rocket 3.9 21:49:57 10° WSW 21:55:05 34° WNW 22:00:13 10° N
Cosmos 2237 Rocket 2.6 21:51:18 10° SSW 21:56:52 66° WNW 22:02:30 10° NNE
Cosmos 1869 Rocket 4.0 21:56:45 10° N 22:00:54 43° ENE 22:00:54 43° ENE
Cosmos 2056 Rocket 3.4 21:57:35 10° SSW 22:02:59 79° ESE 22:08:25 10° NNE
Genesis I 4.5 22:00:04 10° NW 22:03:49 36° WSW 22:05:02 29° SSW
Cosmos 2278 Rocket 2.6 22:01:30 10° NNW 22:07:06 60° WSW 22:09:51 30° S
Helios 1A 3.7 22:08:42 38° ENE 22:08:42 38° ENE 22:12:16 10° N
Terra 3.6 22:09:24 18° ENE 22:09:24 18° ENE 22:12:13 10° NNE
ATLAS 5 CENTAUR R/B 4.5 22:06:21 10° N 22:09:30 15° NNE 22:12:36 10° ENE
Cosmos 2098 Rocket 3.2 22:07:13 24° SSW 22:10:02 70° W 22:13:55 10° N
Cosmos 1862 3.8 22:06:18 10° N 22:09:45 48° NE 22:09:45 48° NE
Cosmos 405 Rocket 3.6 22:15:04 38° NE 22:15:04 38° NE 22:17:42 10° NNE
Cosmos 405 3.5 22:14:39 10° N 22:17:29 55° NNW 22:17:29 55° NNW
Cosmos 1624 Rocket 4.2 22:14:52 10° SSW 22:20:01 69° WNW 22:25:13 10° NNE
Cosmos 1190 Rocket 3.9 22:18:47 10° NNW 22:24:06 89° WSW 22:24:56 64° SSE
ATLAS 2A CENTAUR R/B 4.2 22:11:55 10° SW 22:26:20 33° S 22:27:46 32° SSE
Cosmos 1140 Rocket 3.8 22:22:08 10° N 22:27:07 48° ENE 22:27:07 48° ENE
SPOT 5 3.1 22:28:34 51° NE 22:28:34 51° NE 22:32:27 10° N
Lacrosse 5 4.0 22:25:01 10° NNW 22:28:24 18° NNE 22:30:33 14° NE
Cosmos 1825 4.1 22:25:28 10° NNW 22:28:39 25° W 22:29:46 22° WSW
ATLAS 2AS CENTAUR R/B 4.0 22:29:08 10° NW 22:35:57 35° WSW 22:39:43 21° SSW
Cosmos 1954 Rocket 4.1 22:31:49 10° NNW 22:36:48 60° ENE 22:36:48 60° ENE
GEOS 3 Rocket 3.6 22:36:02 10° NE 22:41:25 86° NW 22:43:43 35° SW
SL-16 R/B 2.5 22:43:10 20° SW 22:47:05 63° WNW 22:52:43 10° NNE
ARGOS 4.1 22:48:16 34° SW 22:49:45 41° W 22:54:48 10° NNW
Cosmos 2344 3.4 22:43:29 10° SSW 22:51:06 79° ESE 22:59:19 10° NE
SL-19 R/B 4.2 22:53:15 78° ENE 22:53:15 78° ENE 22:58:46 10° NNW
Cosmos 1000 Rocket 4.3 22:47:33 10° N 22:53:47 86° E 22:54:15 78° SSE
Cosmos 1943 Rocket 3.9 22:50:41 10° N 22:54:37 20° NE 22:54:37 20° NE
Cosmos 1821 Rocket 3.9 22:57:37 76° S 22:58:12 89° E 23:04:33 10° N
DMSP B5D2-2 4.3 22:59:06 10° N 23:04:19 66° WNW 23:04:25 66° W
NOSS 3-4 (A) 4.0 22:59:48 10° NW 23:06:50 64° WSW 23:07:53 58° SSW
NOSS 3-4 (C) 3.9 22:59:54 10° NW 23:06:57 65° WSW 23:07:59 59° SSW
SPOT 1/Viking Rocket 3.9 23:09:39 61° WNW 23:09:39 61° WNW 23:14:23 10° NNW
ERS-1 Rocket 4.1 23:10:08 34° WSW 23:10:20 35° W 23:14:55 10° NNW
USA 267 3.2 23:06:43 10° NE 23:13:16 84° NW 23:19:49 10° SW
Cosmos 2123 Rocket 4.0 23:10:04 10° N 23:15:50 70° NE 23:15:50 70° NE
H-2A R/B 3.5 23:17:10 27° WSW 23:17:33 27° W 23:21:47 10° NW
Cosmos 2369 Rocket 3.1 23:20:56 10° NNW 23:25:18 42° NNE 23:25:18 42° NNE
Helios 1B rocket 4.4 23:22:44 10° N 23:25:09 28° NNW 23:25:09 28° NNW
CZ-2C R/B 4.0 23:36:44 10° NNE 23:39:32 31° NNE 23:39:32 31° NNE
CZ-4C R/B 3.1 23:44:41 43° N 23:44:41 43° N 23:48:56 10° NNE
USA 234 3.7 23:45:38 50° NE 23:46:06 50° NNE 23:52:22 10° NW
Terra 3.5 23:48:18 31° NW 23:48:18 31° NW 23:51:00 10° NNW
Cosmos 1605 Rocket 4.3 23:49:31 63° NNW 23:49:31 63° NNW 23:54:55 10° N
